Погода в Малой Вишере

Россия / Новгородская область     58°50′44″N   32°13′03″E
темп.,
°C
ветер,
м/с
пор.,
м/с
влажн.,
%
обл.,
%
осадки,
мм/ч
давл.,
гПа
погр.,
м
17 апреля, сб
сб1700:00+6всв4116566 0.0 1027435
03:00+5св4127389 0.0 1027410
06:00+5всв3117427 0.0 1027424
09:00+8всв596051 0.0 1028578
12:00+13всв574534 0.0 10281036
15:00+15всв57365 0.0 10271289
18:00+14всв47395 0.0 10261178
21:00+8св3116263 0.0 1027256
18 апреля, вс
вс1800:00+6св411745 0.0 1028336
03:00+4св311815 0.0 1028274
06:00+3св311860 0.0 1028279
09:00+8всв48601 0.0 1028578
12:00+12всв57415 0.0 10281691
15:00+14всв58345 0.0 10272155
18:00+13всв56429 0.0 10271998
21:00+8всв286554 0.0 1029201
19 апреля, пн
пн1900:00+6св3107457 0.0 1029321
03:00+4всв398652 0.0 1030278
06:00+3всв3991100 0.0 1030279
09:00+7в47625 0.0 1030706
12:00+10в46445 0.0 10291370
15:00+12в45365 0.0 10291744
18:00+11в35395 0.0 10281777
21:00+6в310570 0.0 1029274
20 апреля, вт
вт2000:00+3в3116261 0.0 1028333
03:00+2в39715 0.0 1028229
06:00+1в310735 0.0 1027263
09:00+6в48483 0.0 1026745
12:00+9вюв573458 0.0 10241800
15:00+10вюв5738100 0.0 10222143
18:00+7вюв475897 0.0 10211247
21:00+4в387596 0.0 1020351
21 апреля, ср
ср2100:00+5всв3876100 0.0 1016674
03:00+4всв4977100 0.0 1013586
06:00+2св41197100 1.7 1009558
09:00+2св41097100 3.8 1006499
12:00+3св3586100 0.6 1004808
15:00+4св3492100 0.7 1003618
18:00+3с2498100 1.1 1003493
21:00+3сз2596100 1.8 1004615